{"data":{"norad_id":69601,"epoch":"2026-09-20T04:15:33.164352Z","epoch_age_seconds":56764,"freshness":"FRESH","line1":"1 69601U 26140K   26263.17746718  .00000665  00000+0  12487-3 0  9996","line2":"2 69601  51.9024 317.5961 0000863 193.6524 166.4414 14.76603771 15592","mean_motion":14.76603771,"eccentricity":8.63e-5,"inclination_deg":51.9024,"raan_deg":317.5961,"arg_perigee_deg":193.6524,"mean_anomaly_deg":166.4414,"bstar":0.00012487,"rev_number":1559,"period_min":97.521083738313,"perigee_km":639.45925053248,"apogee_km":640.67059218411,"semimajor_km":7018.2019213583,"source":"CELESTRAK","updated_at":"2026-09-20T09:00:25.001020Z"}}